SAM318 SEGU-SEGS

Flight info

Callsign SAM318
Flight time 1h 56m
Altitude 32000
Route ASOSI3A ASOSI UW17 SCV
Aircraft B737/M-SDE1E3FGHIJ4J5M1RTUWXYZ/LB1D1

Departure

Time 2026-04-29 10:57
Airport José Joaquín de Olmedo International Airport (SEGU)

Arrival

Time 2026-04-29 12:54
Airport Seymour Galapagos Ecological Airport (SEGS)
Time Latitude Longitude Altitude Speed Heading
2026-04-29 10:05 -2.15329 -79.88340 27 ft 0 kts 346°
2026-04-29 10:09 -2.15332 -79.88339 27 ft 0 kts 346°
2026-04-29 10:46 -2.15349 -79.88335 27 ft 4 kts 345°
2026-04-29 10:46 -2.15375 -79.88327 27 ft 4 kts 343°
2026-04-29 10:46 -2.15401 -79.88320 27 ft 4 kts 344°
2026-04-29 10:47 -2.15428 -79.88313 27 ft 4 kts 352°
2026-04-29 10:47 -2.15449 -79.88312 27 ft 4 kts
2026-04-29 10:47 -2.15473 -79.88321 27 ft 3 kts 31°
2026-04-29 10:47 -2.15477 -79.88323 27 ft 1 kts 30°
2026-04-29 10:49 -2.15472 -79.88320 27 ft 3 kts 31°
2026-04-29 10:49 -2.15444 -79.88303 27 ft 5 kts 30°
2026-04-29 10:50 -2.15408 -79.88283 27 ft 6 kts 30°
2026-04-29 10:50 -2.15370 -79.88260 26 ft 6 kts 30°
2026-04-29 10:50 -2.15338 -79.88242 26 ft 2 kts 29°
2026-04-29 10:50 -2.15337 -79.88242 26 ft 0 kts 29°
2026-04-29 10:52 -2.15321 -79.88232 26 ft 8 kts 30°
2026-04-29 10:52 -2.15262 -79.88227 27 ft 9 kts 321°
2026-04-29 10:53 -2.15208 -79.88247 27 ft 9 kts 22°
2026-04-29 10:53 -2.15149 -79.88214 28 ft 10 kts 30°
2026-04-29 10:53 -2.15073 -79.88170 28 ft 15 kts 31°
2026-04-29 10:53 -2.14975 -79.88114 28 ft 17 kts 30°
2026-04-29 10:54 -2.14871 -79.88057 28 ft 17 kts 31°
2026-04-29 10:54 -2.14773 -79.87997 28 ft 16 kts 30°
2026-04-29 10:54 -2.14685 -79.87946 27 ft 9 kts 35°
2026-04-29 10:54 -2.14653 -79.87893 27 ft 9 kts 70°
2026-04-29 10:55 -2.14636 -79.87833 27 ft 9 kts 77°
2026-04-29 10:55 -2.14649 -79.87762 27 ft 10 kts 123°
2026-04-29 10:55 -2.14691 -79.87761 26 ft 6 kts 208°
2026-04-29 10:55 -2.14697 -79.87764 26 ft 0 kts 209°
2026-04-29 10:56 -2.14698 -79.87764 26 ft 1 kts 209°
2026-04-29 10:56 -2.14822 -79.87836 27 ft 53 kts 210°
2026-04-29 10:57 -2.15326 -79.88126 29 ft 115 kts 210°
2026-04-29 10:57 -2.16174 -79.88613 43 ft 162 kts 210°
2026-04-29 10:57 -2.17184 -79.89189 573 ft 166 kts 210°
2026-04-29 10:57 -2.18200 -79.89758 1236 ft 167 kts 210°
2026-04-29 10:58 -2.19222 -79.90329 1810 ft 172 kts 210°
2026-04-29 10:58 -2.20347 -79.90956 2085 ft 198 kts 210°
2026-04-29 10:58 -2.21386 -79.91947 2284 ft 221 kts 247°
2026-04-29 10:58 -2.21577 -79.93536 2494 ft 246 kts 275°
2026-04-29 10:59 -2.21406 -79.95304 2920 ft 262 kts 276°
2026-04-29 10:59 -2.21223 -79.97145 3583 ft 269 kts 275°
2026-04-29 10:59 -2.21061 -79.98988 4339 ft 271 kts 275°
2026-04-29 10:59 -2.20916 -80.00881 5067 ft 275 kts 274°
2026-04-29 11:00 -2.20787 -80.02804 5809 ft 279 kts 274°
2026-04-29 11:00 -2.20669 -80.04760 6519 ft 284 kts 274°
2026-04-29 11:00 -2.20559 -80.06745 7266 ft 287 kts 274°
2026-04-29 11:00 -2.20454 -80.08747 8055 ft 290 kts 273°
2026-04-29 11:01 -2.20354 -80.10773 8858 ft 293 kts 273°
2026-04-29 11:01 -2.20255 -80.12827 9636 ft 298 kts 273°
2026-04-29 11:01 -2.20157 -80.14884 10281 ft 306 kts 273°
2026-04-29 11:01 -2.20053 -80.17100 10470 ft 332 kts 273°
2026-04-29 11:02 -2.19943 -80.19481 10698 ft 353 kts 273°
2026-04-29 11:02 -2.19828 -80.21964 11223 ft 362 kts 273°
2026-04-29 11:02 -2.19712 -80.24493 11916 ft 366 kts 273°
2026-04-29 11:02 -2.19596 -80.27042 12637 ft 369 kts 273°
2026-04-29 11:03 -2.19478 -80.29618 13319 ft 373 kts 273°
2026-04-29 11:03 -2.19358 -80.32229 13955 ft 378 kts 273°
2026-04-29 11:03 -2.19237 -80.34864 14560 ft 382 kts 273°
2026-04-29 11:03 -2.19115 -80.37530 15190 ft 385 kts 273°
2026-04-29 11:04 -2.18993 -80.40181 15802 ft 389 kts 273°
2026-04-29 11:04 -2.18869 -80.42891 16412 ft 393 kts 273°
2026-04-29 11:04 -2.18743 -80.45639 17012 ft 397 kts 273°
2026-04-29 11:04 -2.18615 -80.48409 17601 ft 401 kts 273°
2026-04-29 11:05 -2.18487 -80.51210 18189 ft 405 kts 273°
2026-04-29 11:05 -2.18393 -80.54036 18689 ft 409 kts 269°
2026-04-29 11:05 -2.18540 -80.56878 19208 ft 411 kts 265°
2026-04-29 11:05 -2.18814 -80.59733 19729 ft 414 kts 264°
2026-04-29 11:06 -2.19121 -80.62603 20235 ft 417 kts 264°
2026-04-29 11:06 -2.19418 -80.65457 20714 ft 420 kts 264°
2026-04-29 11:06 -2.19703 -80.68372 21199 ft 423 kts 264°
2026-04-29 11:06 -2.19973 -80.71310 21684 ft 426 kts 264°
2026-04-29 11:07 -2.20234 -80.74269 22180 ft 428 kts 264°
2026-04-29 11:07 -2.20492 -80.77247 22600 ft 432 kts 264°
2026-04-29 11:07 -2.20750 -80.80250 23020 ft 435 kts 265°
2026-04-29 11:07 -2.21009 -80.83269 23494 ft 437 kts 264°
2026-04-29 11:08 -2.21270 -80.86307 23865 ft 439 kts 264°
2026-04-29 11:08 -2.21532 -80.89356 24213 ft 442 kts 264°
2026-04-29 11:08 -2.21797 -80.92427 24548 ft 444 kts 264°
2026-04-29 11:08 -2.22046 -80.95462 24972 ft 444 kts 266°
2026-04-29 11:09 -2.21989 -80.98548 25334 ft 446 kts 276°
2026-04-29 11:09 -2.21489 -81.01627 25610 ft 450 kts 280°
2026-04-29 11:09 -2.20884 -81.04705 25925 ft 452 kts 281°
2026-04-29 11:09 -2.20254 -81.07791 26275 ft 454 kts 281°
2026-04-29 11:10 -2.19626 -81.10877 26639 ft 454 kts 281°
2026-04-29 11:10 -2.19008 -81.13980 26968 ft 456 kts 281°
2026-04-29 11:10 -2.18399 -81.17097 27288 ft 457 kts 281°
2026-04-29 11:10 -2.17796 -81.20226 27553 ft 460 kts 281°
2026-04-29 11:11 -2.17204 -81.23330 27832 ft 462 kts 281°
2026-04-29 11:11 -2.16604 -81.26487 28174 ft 462 kts 281°
2026-04-29 11:11 -2.16007 -81.29635 28652 ft 459 kts 280°
2026-04-29 11:11 -2.15413 -81.32759 29145 ft 456 kts 280°
2026-04-29 11:12 -2.14822 -81.35871 29596 ft 455 kts 280°
2026-04-29 11:12 -2.14231 -81.38974 30013 ft 454 kts 280°
2026-04-29 11:12 -2.13642 -81.42073 30404 ft 452 kts 279°
2026-04-29 11:12 -2.13055 -81.45154 30783 ft 451 kts 278°
2026-04-29 11:13 -2.12476 -81.48191 31149 ft 451 kts 279°
2026-04-29 11:13 -2.11889 -81.51267 31514 ft 450 kts 278°
2026-04-29 11:13 -2.11304 -81.54340 31867 ft 450 kts 278°
2026-04-29 11:14 -2.10127 -81.60526 31889 ft 453 kts 278°
2026-04-29 11:14 -2.08956 -81.66667 31882 ft 447 kts 277°
2026-04-29 11:15 -2.07798 -81.72745 31903 ft 449 kts 277°
2026-04-29 11:15 -2.06627 -81.78893 31898 ft 451 kts 277°
2026-04-29 11:16 -2.05451 -81.85060 31895 ft 452 kts 277°
2026-04-29 11:16 -2.04428 -81.91262 31893 ft 452 kts 274°
2026-04-29 11:17 -2.03639 -81.97485 31888 ft 451 kts 274°
2026-04-29 11:17 -2.02864 -82.03650 31887 ft 449 kts 274°
2026-04-29 11:18 -2.02058 -82.09826 31890 ft 447 kts 274°
2026-04-29 11:18 -2.01241 -82.15983 31893 ft 446 kts 274°
2026-04-29 11:19 -2.00424 -82.22122 31894 ft 445 kts 274°
2026-04-29 11:19 -1.99614 -82.28213 31894 ft 445 kts 274°
2026-04-29 11:20 -1.98798 -82.34353 31895 ft 446 kts 274°
2026-04-29 11:20 -1.97982 -82.40496 31897 ft 446 kts 274°
2026-04-29 11:21 -1.97302 -82.45608 31901 ft 446 kts 273°
2026-04-29 11:21 -1.96352 -82.52752 31894 ft 446 kts 273°
2026-04-29 11:22 -1.95534 -82.58894 31891 ft 445 kts 273°
2026-04-29 11:22 -1.94711 -82.65028 31893 ft 445 kts 273°
2026-04-29 11:23 -1.94026 -82.70120 31892 ft 445 kts 273°
2026-04-29 11:23 -1.93204 -82.76241 31894 ft 444 kts 273°
2026-04-29 11:24 -1.92381 -82.82369 31887 ft 445 kts 273°
2026-04-29 11:24 -1.91557 -82.88507 31897 ft 446 kts 273°
2026-04-29 11:25 -1.90737 -82.94618 31896 ft 447 kts 273°
2026-04-29 11:25 -1.89909 -83.00782 31894 ft 448 kts 273°
2026-04-29 11:26 -1.88663 -83.10046 31896 ft 448 kts 273°
2026-04-29 11:26 -1.87832 -83.16223 31896 ft 448 kts 273°
2026-04-29 11:27 -1.87007 -83.22357 31896 ft 448 kts 273°
2026-04-29 11:27 -1.86175 -83.28539 31896 ft 448 kts 273°
2026-04-29 11:28 -1.85344 -83.34715 31893 ft 448 kts 273°
2026-04-29 11:28 -1.84513 -83.40892 31894 ft 448 kts 273°
2026-04-29 11:29 -1.83682 -83.47065 31894 ft 448 kts 273°
2026-04-29 11:29 -1.82857 -83.53194 31893 ft 448 kts 273°
2026-04-29 11:30 -1.82025 -83.59367 31894 ft 448 kts 273°
2026-04-29 11:30 -1.81194 -83.65533 31897 ft 448 kts 273°
2026-04-29 11:31 -1.80363 -83.71702 31892 ft 448 kts 273°
2026-04-29 11:31 -1.79537 -83.77830 31895 ft 448 kts 273°
2026-04-29 11:32 -1.78705 -83.83995 31893 ft 448 kts 273°
2026-04-29 11:32 -1.77873 -83.90167 31893 ft 448 kts 273°
2026-04-29 11:33 -1.77040 -83.96340 31893 ft 448 kts 273°
2026-04-29 11:33 -1.76208 -84.02507 31893 ft 448 kts 273°
2026-04-29 11:34 -1.75382 -84.08629 31891 ft 448 kts 273°
2026-04-29 11:34 -1.74550 -84.14798 31890 ft 447 kts 273°
2026-04-29 11:35 -1.73724 -84.20959 31890 ft 447 kts 273°
2026-04-29 11:35 -1.72899 -84.27125 31891 ft 447 kts 273°
2026-04-29 11:36 -1.72074 -84.33289 31888 ft 448 kts 273°
2026-04-29 11:36 -1.71253 -84.39411 31892 ft 448 kts 273°
2026-04-29 11:37 -1.70426 -84.45582 31890 ft 448 kts 273°
2026-04-29 11:37 -1.69598 -84.51756 31891 ft 448 kts 273°
2026-04-29 11:38 -1.68769 -84.57932 31891 ft 448 kts 273°
2026-04-29 11:38 -1.67946 -84.64065 31890 ft 448 kts 273°
2026-04-29 11:39 -1.67118 -84.70239 31889 ft 448 kts 273°
2026-04-29 11:39 -1.66289 -84.76412 31887 ft 448 kts 273°
2026-04-29 11:40 -1.65461 -84.82577 31889 ft 447 kts 273°
2026-04-29 11:40 -1.64639 -84.88700 31891 ft 447 kts 273°
2026-04-29 11:41 -1.63812 -84.94855 31891 ft 447 kts 273°
2026-04-29 11:41 -1.62986 -85.01009 31890 ft 447 kts 273°
2026-04-29 11:42 -1.62158 -85.07168 31894 ft 447 kts 273°
2026-04-29 11:42 -1.61336 -85.13286 31887 ft 447 kts 273°
2026-04-29 11:43 -1.60512 -85.19440 31890 ft 447 kts 273°
2026-04-29 11:43 -1.59692 -85.25595 31891 ft 447 kts 273°
2026-04-29 11:44 -1.58872 -85.31751 31887 ft 447 kts 273°
2026-04-29 11:44 -1.58057 -85.37866 31888 ft 447 kts 273°
2026-04-29 11:45 -1.57236 -85.44023 31890 ft 447 kts 273°
2026-04-29 11:45 -1.56415 -85.50175 31888 ft 447 kts 273°
2026-04-29 11:46 -1.55594 -85.56331 31887 ft 447 kts 273°
2026-04-29 11:46 -1.54772 -85.62487 31886 ft 447 kts 273°
2026-04-29 11:47 -1.53956 -85.68599 31886 ft 447 kts 273°
2026-04-29 11:47 -1.53136 -85.74745 31888 ft 446 kts 273°
2026-04-29 11:48 -1.52314 -85.80899 31888 ft 447 kts 273°
2026-04-29 11:48 -1.51492 -85.87050 31888 ft 446 kts 273°
2026-04-29 11:49 -1.50671 -85.93200 31881 ft 446 kts 273°
2026-04-29 11:49 -1.49854 -85.99311 31882 ft 446 kts 273°
2026-04-29 11:50 -1.49033 -86.05455 31883 ft 447 kts 273°
2026-04-29 11:50 -1.48210 -86.11611 31882 ft 447 kts 273°
2026-04-29 11:51 -1.47387 -86.17764 31886 ft 447 kts 273°
2026-04-29 11:51 -1.46570 -86.23873 31881 ft 446 kts 273°
2026-04-29 11:52 -1.45748 -86.30016 31881 ft 446 kts 273°
2026-04-29 11:52 -1.44927 -86.36155 31882 ft 445 kts 273°
2026-04-29 11:53 -1.44106 -86.42290 31882 ft 445 kts 274°
2026-04-29 11:53 -1.43289 -86.48377 31883 ft 445 kts 274°
2026-04-29 11:54 -1.42466 -86.54510 31882 ft 445 kts 274°
2026-04-29 11:54 -1.41644 -86.60637 31886 ft 445 kts 274°
2026-04-29 11:55 -1.40822 -86.66761 31883 ft 444 kts 274°
2026-04-29 11:55 -1.40007 -86.72838 31885 ft 444 kts 274°
2026-04-29 11:56 -1.39187 -86.78949 31883 ft 444 kts 274°
2026-04-29 11:56 -1.38366 -86.85062 31886 ft 443 kts 274°
2026-04-29 11:57 -1.37547 -86.91166 31885 ft 443 kts 274°
2026-04-29 11:57 -1.36732 -86.97234 31889 ft 443 kts 274°
2026-04-29 11:58 -1.35913 -87.03333 31883 ft 443 kts 274°
2026-04-29 11:58 -1.35093 -87.09437 31884 ft 443 kts 274°
2026-04-29 11:59 -1.34274 -87.15528 31883 ft 442 kts 274°
2026-04-29 11:59 -1.33461 -87.21581 31882 ft 442 kts 274°
2026-04-29 12:00 -1.32643 -87.27671 31886 ft 442 kts 274°
2026-04-29 12:00 -1.31824 -87.33758 31886 ft 442 kts 274°
2026-04-29 12:01 -1.31006 -87.39838 31882 ft 441 kts 274°
2026-04-29 12:01 -1.30195 -87.45866 31882 ft 440 kts 274°
2026-04-29 12:02 -1.29380 -87.51928 31881 ft 440 kts 274°
2026-04-29 12:02 -1.28567 -87.57976 31882 ft 439 kts 274°
2026-04-29 12:03 -1.27753 -87.64027 31883 ft 439 kts 274°
2026-04-29 12:03 -1.26944 -87.70034 31882 ft 439 kts 274°
2026-04-29 12:04 -1.26131 -87.76081 31884 ft 439 kts 274°
2026-04-29 12:04 -1.25318 -87.82123 31881 ft 438 kts 274°
2026-04-29 12:05 -1.24502 -87.88158 31880 ft 438 kts 275°
2026-04-29 12:05 -1.23437 -87.94125 31880 ft 439 kts 277°
2026-04-29 12:06 -1.22225 -88.00110 31879 ft 439 kts 278°
2026-04-29 12:06 -1.21022 -88.06093 31879 ft 439 kts 277°
2026-04-29 12:07 -1.19842 -88.12081 31884 ft 439 kts 277°
2026-04-29 12:07 -1.18682 -88.18025 31877 ft 439 kts 277°
2026-04-29 12:08 -1.17518 -88.24004 31880 ft 438 kts 277°
2026-04-29 12:08 -1.16354 -88.29976 31879 ft 438 kts 277°
2026-04-29 12:09 -1.15190 -88.35946 31880 ft 438 kts 277°
2026-04-29 12:09 -1.14033 -88.41875 31875 ft 438 kts 277°
2026-04-29 12:10 -1.12868 -88.47853 31883 ft 439 kts 277°
2026-04-29 12:10 -1.11700 -88.53838 31881 ft 439 kts 277°
2026-04-29 12:11 -1.10533 -88.59817 31866 ft 434 kts 277°
2026-04-29 12:11 -1.09404 -88.65581 31855 ft 413 kts 277°
2026-04-29 12:12 -1.08861 -88.68346 31857 ft 398 kts 277°
2026-04-29 12:12 -1.08337 -88.71016 31859 ft 385 kts 277°
2026-04-29 12:12 -1.07833 -88.73590 31860 ft 371 kts 277°
2026-04-29 12:12 -1.07347 -88.76077 31859 ft 358 kts 277°
2026-04-29 12:13 -1.06877 -88.78486 31714 ft 351 kts 277°
2026-04-29 12:13 -1.06413 -88.80871 31382 ft 349 kts 276°
2026-04-29 12:13 -1.05952 -88.83255 30938 ft 351 kts 276°
2026-04-29 12:13 -1.05492 -88.85633 30309 ft 359 kts 276°
2026-04-29 12:14 -1.05006 -88.88167 28976 ft 384 kts 277°
2026-04-29 12:14 -1.04486 -88.90875 27537 ft 407 kts 278°
2026-04-29 12:14 -1.03938 -88.93699 26116 ft 421 kts 279°
2026-04-29 12:14 -1.03367 -88.96612 24774 ft 432 kts 280°
2026-04-29 12:15 -1.02783 -88.99582 23916 ft 435 kts 280°
2026-04-29 12:15 -1.02062 -89.02478 23756 ft 432 kts 290°
2026-04-29 12:15 -1.00839 -89.05280 23570 ft 447 kts 294°
2026-04-29 12:15 -0.99559 -89.08118 23319 ft 461 kts 291°
2026-04-29 12:16 -0.98654 -89.11232 23053 ft 472 kts 281°
2026-04-29 12:16 -0.98107 -89.14443 22611 ft 466 kts 278°
2026-04-29 12:16 -0.97635 -89.17646 21726 ft 466 kts 278°
2026-04-29 12:16 -0.97181 -89.20835 20816 ft 463 kts 278°
2026-04-29 12:17 -0.96715 -89.24009 20003 ft 460 kts 278°
2026-04-29 12:17 -0.96233 -89.27154 19172 ft 457 kts 279°
2026-04-29 12:17 -0.95740 -89.30270 18518 ft 451 kts 279°
2026-04-29 12:17 -0.95251 -89.33302 17741 ft 447 kts 280°
2026-04-29 12:18 -0.94754 -89.36357 16927 ft 442 kts 280°
2026-04-29 12:18 -0.94262 -89.39375 16148 ft 438 kts 280°
2026-04-29 12:18 -0.93777 -89.42358 15455 ft 432 kts 280°
2026-04-29 12:18 -0.93299 -89.45297 15009 ft 421 kts 280°
2026-04-29 12:19 -0.92842 -89.48113 14890 ft 402 kts 280°
2026-04-29 12:19 -0.92406 -89.50808 14788 ft 385 kts 280°
2026-04-29 12:19 -0.91987 -89.53389 14697 ft 369 kts 280°
2026-04-29 12:19 -0.91584 -89.55874 14590 ft 355 kts 280°
2026-04-29 12:20 -0.91195 -89.58267 14381 ft 345 kts 280°
2026-04-29 12:20 -0.90812 -89.60627 13992 ft 343 kts 280°
2026-04-29 12:20 -0.90360 -89.62927 13514 ft 342 kts 290°
2026-04-29 12:20 -0.89189 -89.64973 13011 ft 337 kts 314°
2026-04-29 12:21 -0.87381 -89.66396 12606 ft 329 kts 335°
2026-04-29 12:21 -0.85227 -89.67063 12170 ft 323 kts 356°
2026-04-29 12:21 -0.83065 -89.66905 12088 ft 304 kts 17°
2026-04-29 12:21 -0.81189 -89.66073 11991 ft 288 kts 36°
2026-04-29 12:22 -0.79771 -89.64742 11876 ft 275 kts 55°
2026-04-29 12:22 -0.78852 -89.63105 11628 ft 269 kts 69°
2026-04-29 12:22 -0.78339 -89.61321 11303 ft 267 kts 82°
2026-04-29 12:22 -0.78361 -89.59499 10967 ft 267 kts 97°
2026-04-29 12:23 -0.78632 -89.57671 10680 ft 264 kts 98°
2026-04-29 12:23 -0.78925 -89.55860 10393 ft 262 kts 98°
2026-04-29 12:23 -0.79214 -89.54068 10044 ft 263 kts 98°
2026-04-29 12:23 -0.79503 -89.52264 9738 ft 262 kts 98°
2026-04-29 12:24 -0.79791 -89.50476 9450 ft 259 kts 101°
2026-04-29 12:24 -0.80449 -89.48813 9083 ft 260 kts 122°
2026-04-29 12:24 -0.81596 -89.47432 8910 ft 258 kts 135°
2026-04-29 12:24 -0.83039 -89.46388 8885 ft 262 kts 149°
2026-04-29 12:25 -0.84753 -89.45747 8884 ft 266 kts 166°
2026-04-29 12:25 -0.86611 -89.45628 8884 ft 271 kts 184°
2026-04-29 12:25 -0.90037 -89.47159 8885 ft 279 kts 222°
2026-04-29 12:26 -0.91223 -89.48693 8881 ft 281 kts 242°
2026-04-29 12:26 -0.91930 -89.50509 8885 ft 282 kts 256°
2026-04-29 12:26 -0.92084 -89.52450 8880 ft 281 kts 276°
2026-04-29 12:26 -0.91820 -89.54357 8880 ft 281 kts 279°
2026-04-29 12:27 -0.91510 -89.56283 8884 ft 281 kts 279°
2026-04-29 12:27 -0.91197 -89.58212 8875 ft 281 kts 279°
2026-04-29 12:27 -0.90887 -89.60140 8885 ft 281 kts 279°
2026-04-29 12:27 -0.90574 -89.62065 8883 ft 281 kts 282°
2026-04-29 12:28 -0.89792 -89.63823 8879 ft 277 kts 312°
2026-04-29 12:28 -0.88300 -89.64979 8879 ft 271 kts 340°
2026-04-29 12:28 -0.86489 -89.65329 8883 ft 264 kts
2026-04-29 12:28 -0.84747 -89.64863 8885 ft 259 kts 31°
2026-04-29 12:29 -0.83393 -89.63709 8881 ft 257 kts 56°
2026-04-29 12:29 -0.82649 -89.62133 8894 ft 256 kts 77°
2026-04-29 12:29 -0.82533 -89.60361 8879 ft 258 kts 97°
2026-04-29 12:29 -0.82811 -89.58585 8879 ft 260 kts 99°
2026-04-29 12:30 -0.83110 -89.56798 8808 ft 262 kts 99°
2026-04-29 12:30 -0.83405 -89.54997 8688 ft 262 kts 98°
2026-04-29 12:30 -0.83693 -89.53208 8544 ft 260 kts 98°
2026-04-29 12:30 -0.84265 -89.51522 8391 ft 258 kts 123°
2026-04-29 12:31 -0.85538 -89.50280 8284 ft 259 kts 147°
2026-04-29 12:31 -0.87229 -89.49666 8165 ft 262 kts 171°
2026-04-29 12:31 -0.89024 -89.49807 8041 ft 267 kts 196°
2026-04-29 12:31 -0.90644 -89.50758 7942 ft 278 kts 223°
2026-04-29 12:32 -0.91677 -89.52384 7816 ft 281 kts 253°
2026-04-29 12:32 -0.91856 -89.54311 7714 ft 280 kts 275°
2026-04-29 12:32 -0.91579 -89.56249 7619 ft 284 kts 280°
2026-04-29 12:32 -0.91229 -89.58238 7516 ft 296 kts 280°
2026-04-29 12:33 -0.90881 -89.60280 7391 ft 300 kts 279°
2026-04-29 12:33 -0.90522 -89.62342 7274 ft 301 kts 285°
2026-04-29 12:33 -0.89605 -89.64195 7146 ft 296 kts 307°
2026-04-29 12:33 -0.88380 -89.65800 7033 ft 293 kts 309°
2026-04-29 12:34 -0.87118 -89.67417 6931 ft 296 kts 308°
2026-04-29 12:34 -0.85873 -89.69047 6880 ft 294 kts 308°
2026-04-29 12:34 -0.84657 -89.70680 6886 ft 292 kts 307°
2026-04-29 12:34 -0.83458 -89.72326 6877 ft 294 kts 307°
2026-04-29 12:35 -0.82272 -89.73979 6881 ft 292 kts 306°
2026-04-29 12:35 -0.81100 -89.75627 6873 ft 291 kts 306°
2026-04-29 12:35 -0.79933 -89.77283 6880 ft 291 kts 306°
2026-04-29 12:35 -0.78771 -89.78937 6881 ft 292 kts 306°
2026-04-29 12:36 -0.77605 -89.80603 6879 ft 293 kts 306°
2026-04-29 12:36 -0.76453 -89.82252 6888 ft 293 kts 306°
2026-04-29 12:36 -0.75286 -89.83925 6881 ft 294 kts 306°
2026-04-29 12:36 -0.74117 -89.85603 6880 ft 294 kts 306°
2026-04-29 12:37 -0.72949 -89.87281 6878 ft 294 kts 306°
2026-04-29 12:37 -0.71782 -89.88956 6882 ft 293 kts 306°
2026-04-29 12:37 -0.70619 -89.90626 6885 ft 293 kts 306°
2026-04-29 12:37 -0.69453 -89.92301 6879 ft 294 kts 306°
2026-04-29 12:38 -0.68286 -89.93979 6878 ft 294 kts 306°
2026-04-29 12:38 -0.67134 -89.95635 6882 ft 293 kts 306°
2026-04-29 12:38 -0.65984 -89.97286 6873 ft 293 kts 306°
2026-04-29 12:38 -0.64821 -89.98957 6880 ft 292 kts 306°
2026-04-29 12:39 -0.63661 -90.00625 6869 ft 293 kts 306°
2026-04-29 12:39 -0.62498 -90.02297 6882 ft 293 kts 306°
2026-04-29 12:39 -0.61325 -90.03982 6737 ft 299 kts 306°
2026-04-29 12:39 -0.60135 -90.05693 6526 ft 297 kts 306°
2026-04-29 12:40 -0.58973 -90.07365 6344 ft 290 kts 306°
2026-04-29 12:40 -0.57838 -90.08996 6155 ft 280 kts 306°
2026-04-29 12:40 -0.56752 -90.10557 5987 ft 266 kts 306°
2026-04-29 12:40 -0.55720 -90.12041 5838 ft 256 kts 306°
2026-04-29 12:41 -0.54732 -90.13462 5682 ft 248 kts 306°
2026-04-29 12:41 -0.53768 -90.14846 5576 ft 237 kts 306°
2026-04-29 12:41 -0.52847 -90.16169 5447 ft 230 kts 306°
2026-04-29 12:41 -0.51932 -90.17483 5318 ft 232 kts 306°
2026-04-29 12:42 -0.51004 -90.18817 5199 ft 234 kts 305°
2026-04-29 12:42 -0.50070 -90.20159 5063 ft 237 kts 305°
2026-04-29 12:42 -0.49127 -90.21514 4807 ft 240 kts 305°
2026-04-29 12:42 -0.48177 -90.22879 4464 ft 237 kts 305°
2026-04-29 12:43 -0.47244 -90.24218 4090 ft 232 kts 304°
2026-04-29 12:43 -0.46354 -90.25497 3789 ft 221 kts 304°
2026-04-29 12:43 -0.45600 -90.26752 3643 ft 202 kts 295°
2026-04-29 12:43 -0.45000 -90.27963 3434 ft 189 kts 293°
2026-04-29 12:44 -0.44434 -90.29130 3151 ft 184 kts 292°
2026-04-29 12:44 -0.43880 -90.30269 2720 ft 183 kts 292°
2026-04-29 12:44 -0.43338 -90.31376 2420 ft 170 kts 292°
2026-04-29 12:44 -0.42836 -90.32390 2092 ft 160 kts 291°
2026-04-29 12:45 -0.42342 -90.33390 1961 ft 159 kts 292°
2026-04-29 12:45 -0.41761 -90.34338 1969 ft 164 kts 317°
2026-04-29 12:45 -0.40846 -90.35014 2008 ft 165 kts 322°
2026-04-29 12:45 -0.39930 -90.35684 1988 ft 164 kts 322°
2026-04-29 12:46 -0.39017 -90.36353 1980 ft 161 kts 322°
2026-04-29 12:46 -0.38122 -90.37008 1975 ft 159 kts 322°
2026-04-29 12:46 -0.37185 -90.37692 2015 ft 173 kts 322°
2026-04-29 12:46 -0.36149 -90.38401 2002 ft 183 kts 334°
2026-04-29 12:47 -0.34931 -90.38508 1995 ft 177 kts 20°
2026-04-29 12:47 -0.34003 -90.37802 1976 ft 161 kts 67°
2026-04-29 12:47 -0.33778 -90.36781 1993 ft 147 kts 96°
2026-04-29 12:47 -0.33842 -90.35773 1985 ft 145 kts 100°
2026-04-29 12:48 -0.34207 -90.34923 1976 ft 132 kts 143°
2026-04-29 12:48 -0.34925 -90.34348 1987 ft 136 kts 137°
2026-04-29 12:48 -0.35638 -90.33724 1996 ft 136 kts 144°
2026-04-29 12:48 -0.36390 -90.33166 1992 ft 135 kts 145°
2026-04-29 12:49 -0.37160 -90.32604 1905 ft 138 kts 146°
2026-04-29 12:49 -0.37909 -90.32052 1735 ft 132 kts 145°
2026-04-29 12:49 -0.38651 -90.31503 1517 ft 133 kts 146°
2026-04-29 12:49 -0.39402 -90.30946 1304 ft 135 kts 145°
2026-04-29 12:50 -0.40142 -90.30378 1150 ft 132 kts 146°
2026-04-29 12:50 -0.40884 -90.29857 983 ft 129 kts 147°
2026-04-29 12:50 -0.41613 -90.29328 846 ft 132 kts 146°
2026-04-29 12:50 -0.42343 -90.28785 678 ft 132 kts 145°
2026-04-29 12:51 -0.43088 -90.28251 529 ft 132 kts 144°
2026-04-29 12:51 -0.43834 -90.27702 353 ft 131 kts 143°
2026-04-29 12:51 -0.44555 -90.27176 219 ft 131 kts 146°
2026-04-29 12:51 -0.45349 -90.26663 865 ft 146 kts 162°
2026-04-29 12:52 -0.46449 -90.26796 1001 ft 173 kts 216°
2026-04-29 12:52 -0.46903 -90.27897 963 ft 186 kts 279°
2026-04-29 12:52 -0.46155 -90.28809 935 ft 164 kts 330°
2026-04-29 12:52 -0.45148 -90.29184 795 ft 153 kts
2026-04-29 12:53 -0.44178 -90.28853 573 ft 151 kts 50°
2026-04-29 12:53 -0.43949 -90.27971 372 ft 132 kts 113°
2026-04-29 12:53 -0.44454 -90.27258 179 ft 125 kts 143°
2026-04-29 12:53 -0.45025 -90.26841 172 ft 57 kts 144°
2026-04-29 12:54 -0.45125 -90.26773 174 ft 3 kts 223°
2026-04-29 12:54 -0.45088 -90.26816 173 ft 22 kts 333°
2026-04-29 12:54 -0.44923 -90.26915 171 ft 30 kts 325°
2026-04-29 12:54 -0.44774 -90.27022 163 ft 22 kts 324°
2026-04-29 12:55 -0.44662 -90.27065 160 ft 15 kts 45°
2026-04-29 12:55 -0.44649 -90.27002 160 ft 6 kts 122°
2026-04-29 12:55 -0.44646 -90.26984 160 ft 1 kts 19°
2026-04-29 12:55 -0.44640 -90.26988 160 ft 0 kts 324°
2026-04-29 12:58 -0.44603 -90.26941 161 ft 0 kts 238°